Theta_e
345 346 346 346 345 342 341 340 338 336 335 337 338 339 339 340 341 342 344 343 342 342 342 342 341 341 342 342 342 344 343 343 343 342 343 342 336 330 328 330 337 341 342 343 343 343 343 343 343 342 341 341 343 344 344 344 344 343 343 343 343 343 343 343 343 343 344 344 344 344 344 344 344 344 343 343 342 342 342 342 341 340 340 341 341
344 345 345 345 345 343 341 339 338 337 337 338 338 339 340 341 341 343 344 344 344 342 342 342 341 341 341 342 343 345 344 343 343 343 343 342 338 335 335 336 339 341 343 344 344 344 344 344 344 343 342 342 343 343 344 344 344 344 344 344 344 344 344 344 344 344 344 343 344 343 344 344 344 344 344 343 343 342 341 340 340 340 341 341 340
342 343 343 344 344 343 341 340 340 340 339 339 340 340 341 342 342 343 343 345 345 343 343 342 343 342 341 342 343 344 344 343 342 343 344 342 339 339 339 339 339 340 341 343 344 344 344 344 344 344 343 343 344 344 344 344 344 344 344 344 344 344 344 344 344 345 344 343 344 343 344 344 343 344 343 343 343 341 338 337 337 338 339 339 340
341 341 341 342 342 342 342 341 341 340 341 341 342 342 342 342 342 343 343 343 345 344 343 343 343 343 343 343 343 344 344 343 342 343 343 341 339 340 340 339 339 339 340 342 343 344 344 344 344 344 343 343 344 344 344 343 343 343 343 343 343 344 343 343 343 343 342 342 342 342 342 343 343 343 342 341 340 339 338 338 337 337 336 337 337
340 339 339 340 339 341 343 342 341 341 341 342 343 343 342 342 343 343 343 343 345 344 343 342 342 343 343 343 343 344 344 344 343 343 343 342 340 340 341 340 338 339 340 342 343 344 344 344 344 344 343 343 344 344 344 343 343 343 343 343 343 344 344 343 343 342 341 341 341 341 341 341 342 342 341 339 338 338 339 339 339 338 338 338 338
340 339 339 338 338 340 342 342 341 341 341 341 342 342 342 342 343 343 343 343 344 345 343 342 342 342 343 344 344 344 345 344 344 344 344 343 341 341 342 340 339 340 342 343 343 343 343 344 344 344 343 343 343 343 344 344 343 343 344 344 343 343 344 344 344 342 341 341 340 340 340 340 339 340 339 339 338 338 339 339 339 339 338 339 339
339 339 338 337 337 338 339 340 339 340 339 339 339 340 342 342 343 343 343 344 345 345 345 344 343 343 344 344 344 344 345 344 344 345 344 343 343 342 342 341 340 341 343 343 343 343 343 344 344 344 343 343 343 343 343 344 344 343 343 343 344 344 344 343 342 340 340 340 339 340 339 339 338 338 339 339 339 340 340 339 339 339 339 339 339
338 337 336 336 337 337 338 339 339 340 339 340 339 341 342 343 343 342 343 344 344 345 345 344 344 344 344 344 344 344 344 344 344 344 344 344 343 342 342 342 342 343 344 343 343 343 343 343 344 344 343 343 343 343 343 344 343 343 343 343 343 343 343 342 339 336 336 337 338 339 339 339 338 339 341 341 341 341 342 341 340 340 340 340 340
336 336 335 336 337 338 339 340 342 343 343 342 342 343 342 342 343 343 343 343 343 344 344 343 343 343 344 344 344 344 344 345 344 344 344 344 343 343 342 342 344 345 344 344 343 343 342 342 343 344 343 343 344 344 343 343 343 343 343 343 343 343 343 342 338 333 332 334 337 339 339 340 340 340 341 341 342 341 341 341 340 340 339 339 340
336 336 337 337 338 339 341 342 343 343 342 342 342 341 341 341 341 342 341 342 342 343 343 343 343 343 344 344 344 344 344 345 344 344 345 344 344 343 341 340 343 345 345 344 343 343 342 342 343 344 343 343 344 344 343 343 343 343 343 343 343 343 343 340 336 334 333 333 335 339 340 341 341 341 341 341 341 341 340 339 339 339 338 338 338
337 338 339 339 339 341 342 341 340 339 339 340 340 340 340 340 341 342 341 342 343 344 344 343 344 344 344 344 344 344 344 344 344 345 344 345 344 344 342 338 341 345 345 344 343 343 343 342 343 344 343 343 343 344 344 343 343 343 343 343 343 343 342 339 335 334 333 332 332 335 339 340 339 339 340 340 340 340 340 339 338 338 338 337 337
335 337 338 339 339 339 339 338 337 338 340 341 341 341 341 341 342 343 342 343 343 344 343 343 343 343 343 344 344 343 343 344 344 344 344 344 344 344 343 338 340 345 344 343 343 344 343 343 343 343 342 342 343 344 344 343 343 343 343 343 343 343 343 340 336 332 330 330 329 330 334 335 335 337 338 338 339 340 340 339 337 336 337 336 335
332 333 334 336 337 337 338 338 339 340 341 341 341 341 342 342 343 343 343 343 343 343 343 344 343 342 343 344 343 342 343 343 343 344 344 344 344 344 341 337 341 344 344 344 344 344 344 344 343 342 341 341 342 343 344 344 344 344 344 343 344 344 343 341 336 332 329 328 328 329 330 330 331 334 337 338 339 340 340 339 336 336 335 334 333
332 333 335 337 340 342 341 340 340 340 341 340 340 341 342 343 343 343 343 342 343 343 342 344 344 344 344 343 343 342 342 343 343 343 345 344 341 339 338 339 342 343 343 344 343 344 344 343 341 340 340 340 340 342 344 344 344 344 344 344 344 343 343 341 334 330 328 327 327 328 328 329 331 333 336 339 340 340 339 337 335 336 334 332 330
335 337 339 340 342 344 343 341 340 340 340 340 340 341 343 343 343 343 344 343 344 343 343 344 344 344 343 343 343 342 342 343 343 343 345 342 336 335 339 342 343 343 343 343 343 342 341 340 338 337 337 338 339 342 343 344 344 343 344 345 345 344 343 339 331 327 326 326 327 328 329 330 333 335 336 337 337 335 334 333 334 336 335 332 328
337 339 340 340 340 341 341 341 340 340 340 340 341 341 342 343 344 344 344 344 344 344 344 344 344 344 343 344 344 343 343 343 344 344 344 342 336 337 341 343 343 343 343 342 342 341 339 336 333 332 333 335 337 339 342 344 344 344 344 344 344 343 341 337 330 326 325 326 327 328 327 328 330 332 332 331 329 328 329 330 333 336 336 333 329
339 339 339 339 339 340 341 341 340 340 341 341 341 341 342 343 344 344 344 344 344 344 344 343 344 344 343 344 344 343 343 343 343 343 343 342 338 339 341 341 341 341 340 340 340 337 334 330 328 327 328 331 333 337 341 342 342 342 342 342 341 338 335 334 330 326 326 326 327 327 326 325 326 327 326 325 324 325 327 328 331 335 334 333 331
340 340 339 339 340 340 341 342 342 342 342 343 343 343 343 344 344 344 344 344 344 343 343 343 343 344 344 344 343 343 343 343 343 343 343 340 337 339 340 340 339 339 338 337 336 331 328 327 327 326 326 328 331 336 339 339 340 341 341 340 339 336 334 334 330 326 326 326 327 327 326 325 325 325 324 324 324 325 325 326 328 331 332 330 329
340 340 340 340 340 340 342 343 342 342 342 343 344 344 344 344 345 345 344 344 344 343 343 344 343 344 344 343 343 343 343 343 343 343 343 339 336 339 340 339 339 338 335 332 330 328 328 330 331 331 329 329 332 336 339 339 341 342 342 342 341 338 337 336 331 327 326 327 327 326 325 325 325 325 325 325 325 324 323 323 325 327 326 325 324
341 340 340 341 341 341 342 342 341 341 341 343 343 344 345 344 344 343 343 344 344 343 343 344 344 344 344 343 343 344 343 343 342 342 341 339 337 338 339 339 338 336 333 329 329 330 333 334 334 334 332 332 336 339 340 341 342 343 344 343 341 339 339 337 332 327 326 327 326 326 326 325 325 325 325 325 324 323 322 322 323 323 323 323 321
342 342 341 342 342 342 342 341 340 340 341 342 343 344 344 344 343 343 344 344 345 344 344 344 344 344 344 343 343 343 342 342 341 340 340 339 338 339 339 339 338 336 333 331 332 334 335 335 335 335 334 334 337 340 341 342 343 344 344 342 340 341 341 340 335 328 326 326 326 326 326 325 325 325 324 324 323 321 321 321 322 322 321 322 322
343 343 344 343 342 343 341 340 340 340 341 343 344 345 345 344 345 345 345 345 345 344 344 344 343 344 343 342 342 342 342 341 339 339 339 339 339 340 340 339 338 336 335 334 335 335 335 335 334 335 335 336 338 340 341 341 343 344 343 341 340 342 343 343 340 331 326 326 325 325 325 324 324 324 323 322 321 320 320 321 321 322 322 323 323
343 344 344 343 343 342 341 340 340 341 341 343 343 344 344 344 344 344 345 345 345 344 343 343 343 343 342 342 342 342 342 341 339 339 339 339 340 340 341 340 338 337 337 336 335 335 334 334 335 337 338 339 339 340 341 342 343 343 343 342 341 343 343 343 340 332 326 325 324 324 324 323 323 322 322 321 320 320 321 322 322 323 324 324 325
343 343 344 345 343 342 341 340 340 341 342 341 341 341 343 343 343 343 344 344 344 343 343 343 342 342 341 341 342 342 342 340 340 340 340 340 341 341 341 340 338 337 337 336 335 335 334 335 338 341 343 342 341 341 342 343 343 344 344 343 343 343 343 342 340 331 324 324 323 322 322 321 321 321 321 320 321 322 322 324 324 325 326 326 326
343 344 345 345 343 342 341 340 340 341 342 341 340 342 342 343 343 342 342 343 343 343 343 342 342 341 341 341 341 341 340 339 339 340 340 340 341 340 340 339 338 337 336 335 336 339 339 340 342 344 343 343 343 341 341 343 344 344 344 344 343 343 343 342 341 333 323 322 322 321 321 320 320 320 321 322 322 323 324 325 326 327 327 327 328
345 344 344 344 343 342 341 340 339 341 342 342 342 343 343 343 342 342 341 340 341 341 341 341 341 340 340 339 339 339 339 338 338 339 339 339 339 339 338 338 337 336 336 336 340 343 344 343 343 343 343 343 343 341 340 342 343 344 344 345 342 341 343 342 344 337 324 321 321 320 320 320 321 321 322 323 324 325 325 327 327 328 329 329 330
346 345 344 344 343 342 340 339 339 340 342 343 343 343 343 343 342 341 340 340 339 339 340 339 339 339 339 338 339 339 338 338 338 339 338 338 338 338 338 337 336 336 337 340 343 344 343 343 342 342 342 343 342 341 340 341 342 343 344 345 342 341 342 340 343 339 324 320 321 320 321 321 323 324 324 325 326 326 327 328 328 329 331 332 334
347 346 345 345 344 341 340 340 340 340 341 343 343 342 342 342 342 342 341 340 339 339 339 339 338 339 339 340 340 338 337 337 338 338 337 337 337 337 336 336 337 340 342 343 344 343 342 342 341 342 342 342 343 342 341 340 340 341 341 342 342 340 340 338 340 336 323 320 321 321 323 324 325 325 326 327 327 328 328 329 331 332 333 333 333
347 346 345 345 344 342 342 342 341 341 340 340 340 340 341 342 342 342 341 340 339 338 338 338 339 339 340 340 338 336 335 336 337 337 336 336 337 336 336 336 339 343 345 344 343 342 342 342 342 342 342 342 342 342 342 341 340 340 340 341 341 339 338 338 340 333 323 321 323 323 325 326 326 327 327 328 328 329 330 331 332 332 332 332 332
346 346 346 345 344 343 343 343 342 342 339 338 337 338 340 342 342 342 341 340 339 338 338 338 339 340 339 339 337 336 336 336 336 336 336 336 336 336 336 339 342 344 345 345 344 343 342 342 342 342 342 343 343 343 343 342 342 342 342 343 343 342 340 340 339 331 323 323 324 325 326 327 327 328 328 329 329 330 331 330 330 330 330 331 333
347 346 347 346 345 344 344 344 343 342 340 339 338 337 339 341 342 342 341 341 340 339 339 339 340 340 340 340 339 338 338 337 337 336 335 335 335 335 339 343 345 346 346 346 346 346 345 343 342 343 343 344 344 344 344 343 342 342 342 343 344 344 341 340 336 327 324 326 326 327 327 328 328 328 329 329 330 330 329 328 328 329 330 331 332
347 347 347 346 345 345 344 344 344 343 342 341 341 339 338 340 342 342 341 341 340 339 340 340 340 341 341 342 342 341 341 339 336 334 334 334 336 338 342 345 346 346 347 347 347 347 346 344 342 344 344 345 344 344 345 343 342 342 342 342 343 344 341 341 337 329 326 327 327 327 328 328 329 329 330 329 329 328 327 326 327 328 329 330 330
348 347 346 345 344 345 345 344 344 343 342 343 343 340 338 339 340 341 341 341 341 341 340 341 341 341 341 342 343 343 341 337 334 335 337 339 342 344 345 346 346 347 347 347 347 346 345 344 344 345 345 345 344 344 344 342 342 343 342 341 342 343 341 342 341 338 334 329 327 328 328 329 329 329 328 328 328 326 326 326 327 329 330 331 331
347 348 347 345 344 345 346 344 343 343 342 343 342 340 338 338 339 339 339 339 340 340 341 341 342 343 343 344 344 341 338 337 338 342 345 345 345 346 345 346 347 347 347 347 346 346 345 345 346 346 346 345 344 344 344 343 343 342 341 341 341 343 342 342 342 342 340 333 328 329 328 328 328 327 327 327 327 326 326 327 329 330 331 332 332
347 347 347 346 345 346 346 344 344 343 342 342 341 340 340 340 339 339 338 338 338 339 339 341 343 344 345 345 344 339 339 342 344 346 347 346 346 345 345 346 346 347 347 346 346 345 346 346 346 346 345 345 344 344 343 342 343 342 341 342 343 343 342 342 342 342 340 335 332 331 328 328 327 327 327 326 326 327 328 329 330 331 332 332 333
346 346 348 347 346 347 347 345 344 344 342 342 342 342 342 343 343 342 339 337 337 337 338 340 342 344 344 345 343 341 343 346 346 347 346 346 346 346 345 344 344 346 347 346 346 345 346 346 345 345 345 345 344 343 341 341 343 343 342 343 344 344 343 342 342 342 340 338 338 334 331 330 328 327 328 327 327 328 329 330 331 331 332 334 335
345 347 347 346 346 348 348 345 344 344 343 343 343 343 345 346 347 346 343 340 338 337 339 342 342 343 343 342 342 343 345 347 347 347 347 346 346 345 343 343 344 346 347 347 347 347 346 346 345 345 345 344 344 343 341 342 343 342 342 344 344 343 342 342 343 342 341 339 341 340 336 334 331 329 329 329 329 330 330 330 331 334 337 340 340
346 347 347 346 345 347 348 345 344 344 345 345 343 344 347 348 348 347 346 343 340 339 340 344 344 343 343 340 340 343 346 347 347 347 347 346 347 346 344 344 345 346 346 347 347 347 346 346 345 345 344 344 344 344 343 343 344 342 342 343 343 341 342 344 343 342 341 340 342 343 340 338 337 335 332 330 330 330 330 331 332 336 341 342 342
347 347 348 346 344 346 348 347 346 346 346 345 344 346 348 348 347 346 344 341 340 340 341 343 343 342 342 339 338 342 345 347 347 347 346 346 347 347 346 345 345 345 346 346 346 346 346 345 345 344 344 345 345 345 344 343 343 342 342 342 342 341 342 344 343 341 341 341 342 343 342 340 340 338 334 331 331 330 332 333 333 337 340 340 340
347 348 348 347 345 345 347 348 348 348 348 346 346 347 347 347 346 345 344 341 339 339 338 339 338 338 338 336 336 340 344 346 346 346 346 347 347 346 345 345 344 345 347 346 345 344 345 345 345 345 345 345 344 344 344 343 342 342 341 342 343 342 342 344 343 341 342 341 341 342 342 342 339 338 336 332 331 333 334 333 333 336 338 339 339
348 348 348 348 347 345 345 347 349 349 348 348 348 348 346 345 346 345 344 343 341 338 336 336 335 334 334 334 336 340 342 344 345 345 346 346 346 344 344 343 341 344 346 346 346 344 344 345 345 345 345 344 343 343 343 342 342 342 341 341 341 341 341 343 342 341 343 343 342 341 342 342 341 339 336 332 333 336 338 337 336 336 337 339 340
348 348 348 348 348 347 344 344 348 349 348 348 349 348 346 345 346 346 345 344 343 341 336 335 335 334 333 334 338 341 342 343 344 345 346 346 346 344 343 342 341 345 345 344 345 344 344 345 346 345 344 344 342 341 342 343 342 341 341 341 340 340 340 341 342 341 343 343 342 341 342 342 341 340 338 335 336 337 339 341 342 339 338 340 341
348 348 348 348 349 348 343 341 344 347 347 348 348 347 346 345 346 347 346 344 343 342 340 339 338 335 335 336 338 342 343 344 345 345 346 347 346 343 341 342 344 346 345 343 343 343 344 345 346 346 344 344 343 341 342 345 343 340 340 341 341 340 340 341 342 342 342 341 341 341 343 343 342 340 339 339 340 339 338 341 342 342 341 342 342
348 348 349 349 348 348 346 342 341 344 346 346 346 346 346 346 347 347 346 344 343 345 344 344 341 336 335 337 338 341 342 344 346 345 345 345 344 342 342 342 345 345 344 343 343 343 345 347 346 346 345 344 344 343 343 345 343 341 342 343 343 341 341 342 342 342 341 341 341 340 341 342 341 341 339 340 341 341 341 340 341 343 342 344 343
348 348 348 349 349 347 348 346 340 340 343 344 346 347 347 347 347 347 346 344 345 346 346 346 344 338 336 338 338 339 341 342 344 344 344 344 343 343 343 342 343 344 343 343 344 344 346 347 346 345 345 345 345 345 344 344 345 344 344 344 344 342 343 343 341 340 340 340 340 340 340 340 340 341 339 340 340 340 341 341 341 342 342 344 345
347 348 348 348 349 347 348 348 340 338 341 344 347 347 348 348 346 346 346 345 346 346 346 346 347 342 336 337 338 337 339 340 342 342 343 343 343 343 343 342 342 343 342 342 344 345 346 346 346 345 346 346 346 346 344 345 347 346 345 345 345 345 346 345 342 340 340 340 339 338 339 339 339 340 338 339 341 340 340 340 340 341 341 343 345
346 347 348 348 349 348 349 348 341 338 340 344 347 348 349 349 348 347 346 345 346 347 346 346 347 345 337 337 339 338 339 340 340 342 341 343 344 343 343 342 341 342 342 343 344 345 345 346 346 346 346 345 345 344 343 345 347 347 347 347 346 346 346 345 344 343 341 341 340 337 337 338 338 339 338 339 340 340 340 340 340 340 341 343 344
346 347 348 348 349 348 349 348 341 338 340 342 346 349 350 350 350 350 348 346 346 347 346 346 349 346 338 337 339 338 339 340 340 341 341 343 344 344 344 343 342 342 343 344 345 344 344 345 346 346 345 345 345 345 344 346 347 347 347 347 346 346 346 345 344 344 343 343 342 339 338 338 338 339 339 339 340 340 340 339 340 341 342 343 344
346 346 346 347 349 349 348 347 342 338 340 342 345 349 350 350 350 351 350 347 347 348 347 348 350 346 337 336 339 338 339 339 338 339 341 343 344 343 344 343 343 343 344 346 346 346 345 344 345 346 345 344 345 345 345 346 347 347 347 348 346 345 346 346 344 344 345 345 345 342 340 339 340 339 339 340 340 341 341 340 341 341 342 344 344
345 345 346 346 348 350 348 347 343 339 341 344 346 349 350 350 350 350 350 349 350 350 349 350 350 345 339 339 339 337 338 338 337 339 341 342 343 343 344 344 344 344 344 347 347 346 346 344 343 343 344 344 345 345 345 346 347 346 347 348 346 345 345 346 345 345 346 346 346 344 342 342 341 341 342 342 342 342 342 341 341 341 342 343 344
346 346 347 347 348 350 349 348 345 341 343 345 346 347 348 350 350 349 349 349 350 351 350 351 350 345 343 344 342 337 337 339 339 340 342 342 341 343 344 343 345 345 345 346 347 346 345 343 341 341 342 342 344 345 344 346 347 346 347 348 346 345 345 346 346 346 345 345 346 345 344 344 343 344 344 342 342 343 343 342 342 341 342 344 344
Wind_Speed
17 16 16 16 15 15 15 14 14 15 15 16 16 17 17 17 17 17 17 17 18 18 17 17 16 16 16 15 16 16 16 16 15 15 15 15 15 16 18 20 22 23 22 20 19 19 19 19 19 18 18 19 20 19 19 19 20 20 20 19 19 19 19 18 18 17 17 17 17 17 17 16 17 17 17 17 17 17 17 16 17 17 17 18 17
18 18 17 16 15 15 15 14 14 14 15 16 16 16 16 16 16 16 16 16 17 17 17 16 16 15 15 15 15 15 15 16 16 16 16 16 16 17 19 20 21 21 21 19 19 19 19 18 18 18 19 20 20 20 19 19 19 19 19 19 19 19 19 18 18 18 17 17 17 17 17 16 17 17 16 16 16 16 16 15 15 16 17 16 16
18 18 17 17 16 15 15 14 15 14 15 15 16 15 15 16 16 16 15 16 16 16 16 16 16 15 15 15 14 14 15 15 16 16 16 16 17 18 19 20 20 20 19 18 18 19 18 18 18 18 19 20 20 20 20 19 19 18 19 19 19 19 19 18 17 18 17 16 17 17 17 17 17 16 16 15 15 15 15 15 14 15 15 15 15
18 18 18 18 17 16 15 15 15 15 15 15 15 15 15 15 15 15 14 15 15 16 16 16 16 15 15 14 15 15 14 15 16 16 17 17 17 18 18 19 19 19 18 18 17 18 18 18 18 18 19 19 19 19 19 19 18 18 18 18 18 18 18 18 17 17 17 16 16 17 18 18 17 16 15 14 14 15 15 15 15 14 14 14 14
19 18 18 18 18 16 15 15 15 15 15 15 15 15 15 15 15 14 14 14 15 15 15 16 15 15 14 14 15 15 15 16 16 16 17 17 17 17 17 17 18 18 18 17 17 17 18 18 18 18 18 18 18 18 18 18 18 18 17 17 17 17 17 17 17 16 16 16 16 16 17 17 17 15 14 14 14 14 14 14 14 13 13 14 14
19 19 18 18 18 17 16 15 15 15 15 15 15 15 14 14 14 14 14 14 14 14 14 14 14 14 14 14 14 14 16 17 17 16 17 18 17 17 17 17 17 18 17 17 17 17 17 17 17 17 18 17 18 17 16 17 17 16 16 16 16 16 16 16 16 15 15 15 15 15 15 15 15 14 13 13 13 13 13 12 12 12 12 12 12
20 19 18 18 18 17 16 16 15 14 14 14 14 13 13 14 14 13 14 14 14 14 14 14 14 14 14 14 14 14 16 17 17 16 16 17 17 17 17 17 17 17 17 17 16 16 16 16 16 17 17 17 17 16 16 16 16 15 15 15 15 15 15 14 14 14 13 13 13 13 13 14 14 14 13 12 12 12 12 11 11 11 11 10 11
20 19 18 18 18 17 16 16 15 14 14 13 13 12 12 13 13 13 13 13 13 14 14 14 14 14 14 14 14 14 15 16 16 16 16 17 17 17 16 16 17 17 17 17 16 15 16 16 16 16 17 17 17 16 16 15 15 14 14 14 14 14 14 13 13 12 12 12 12 12 12 12 13 13 13 12 12 11 11 11 10 10 10 9 9
19 18 18 17 17 16 15 15 14 14 13 12 12 12 12 13 13 13 13 13 12 12 12 13 13 13 14 14 14 14 15 16 16 16 17 16 17 17 16 16 16 16 16 16 16 15 15 15 15 16 16 16 16 16 15 15 14 14 14 14 13 13 13 13 12 12 12 12 11 10 10 10 11 12 12 11 11 11 10 9 9 9 8 8 8
18 17 16 15 15 15 14 13 13 13 12 12 12 11 11 11 12 11 11 12 11 11 11 12 12 13 13 14 14 14 15 15 15 16 16 16 17 17 16 15 15 15 15 16 16 15 15 15 15 15 15 15 15 15 15 14 14 13 13 13 13 12 12 12 12 12 12 11 10 10 9 9 9 10 11 10 10 10 9 8 7 7 7 7 7
18 17 15 14 14 13 13 12 12 11 11 11 11 11 10 10 10 10 10 11 11 11 11 11 12 12 13 13 13 14 15 15 15 16 16 16 16 17 17 15 15 15 15 16 15 15 15 16 15 15 14 14 14 14 14 13 13 13 12 12 12 12 11 12 12 11 10 10 9 9 9 8 7 9 9 9 9 8 7 6 6 6 6 6 6
18 16 15 14 14 13 12 11 11 11 10 10 10 10 10 10 10 11 10 11 11 11 12 11 12 12 12 13 13 13 14 15 15 16 16 16 15 16 16 16 16 15 15 16 15 15 15 15 15 15 14 14 13 13 13 13 12 12 13 12 11 11 11 11 10 10 9 8 8 8 8 7 6 8 8 7 7 7 6 5 5 5 5 6 6
17 16 15 14 14 12 12 11 10 10 9 9 9 9 9 10 10 11 11 11 12 11 12 12 12 12 13 13 13 13 14 15 15 15 15 15 14 15 16 16 17 16 16 16 15 15 15 15 15 14 13 13 13 12 13 13 12 12 13 12 11 10 10 10 9 9 8 7 7 7 7 6 6 6 7 6 6 5 5 4 4 4 5 5 5
16 15 15 14 13 11 11 10 9 9 9 8 9 9 9 9 10 11 11 11 11 12 12 11 12 13 13 13 13 13 14 16 16 15 14 13 14 15 17 18 18 16 16 16 15 15 15 14 14 13 13 13 13 12 13 12 12 12 12 12 10 10 9 9 9 9 8 7 6 6 7 6 5 6 5 5 4 3 3 2 2 4 5 5 5
15 15 14 13 12 11 10 9 9 8 8 9 9 9 10 11 11 11 11 11 11 12 12 11 12 12 13 13 13 13 14 16 17 16 15 14 15 18 20 19 18 17 16 16 15 15 14 14 13 13 13 13 13 13 13 12 11 12 12 10 9 10 9 8 9 9 8 7 6 6 6 5 5 4 4 3 2 1 2 2 3 5 6 5 5
14 14 13 13 12 12 11 10 10 9 10 10 10 10 10 11 11 10 11 11 11 11 12 12 12 12 13 13 14 14 15 16 16 16 16 15 17 19 20 18 17 16 16 15 14 14 13 13 13 13 12 13 13 12 12 12 11 11 11 9 9 10 9 8 8 8 8 7 6 6 5 4 4 3 2 1 1 2 2 3 3 4 5 5 5
14 13 13 13 13 13 12 11 11 11 11 10 10 10 10 10 10 10 10 11 11 11 13 13 13 13 13 14 14 15 16 17 17 17 17 16 17 18 18 18 17 16 15 15 14 14 13 13 13 13 13 13 13 13 12 11 11 10 10 9 9 10 11 10 9 8 7 6 6 5 5 5 4 3 3 2 2 3 3 3 4 4 4 5 5
14 13 13 13 13 13 13 12 12 11 11 11 11 10 10 10 10 10 10 11 11 11 13 13 13 14 14 14 14 15 16 17 17 17 17 17 18 18 18 17 17 16 15 15 14 14 14 14 14 14 14 14 14 13 12 11 11 11 10 9 10 12 12 10 9 8 6 6 6 5 5 5 5 4 3 3 3 3 4 4 4 4 5 5 5
14 13 13 13 13 13 13 12 11 11 11 11 11 11 10 10 10 10 11 11 12 12 13 13 13 14 13 13 14 14 15 16 16 16 17 17 18 18 17 17 16 15 15 15 15 15 15 15 14 14 14 15 15 14 13 12 12 12 10 9 10 11 11 10 9 8 6 6 6 6 5 5 5 4 3 3 3 4 5 5 5 5 5 5 6
13 13 13 13 13 12 12 12 11 11 11 11 11 12 11 10 10 11 11 12 12 12 13 13 13 13 13 13 14 15 15 16 16 17 18 17 18 18 17 17 16 16 16 16 16 15 15 14 14 14 15 16 16 16 14 13 11 10 8 7 9 10 10 11 10 8 7 6 6 6 5 5 5 4 4 3 4 5 4 4 4 5 5 5 6
14 13 13 13 13 13 12 12 11 11 11 11 12 13 12 12 12 12 12 12 12 13 13 14 14 14 14 14 14 15 15 16 17 18 19 18 17 17 16 16 16 16 17 17 16 15 14 14 14 15 16 16 16 15 13 11 11 9 7 6 8 10 10 11 11 9 7 6 6 5 5 5 5 5 4 4 4 4 3 4 5 5 6 6 7
15 14 13 13 14 13 13 12 12 11 11 12 13 14 13 13 13 14 14 13 13 13 14 15 16 16 15 15 15 15 16 17 18 19 20 18 17 16 16 16 16 16 17 16 16 15 14 15 16 16 16 15 14 13 12 11 11 10 6 5 7 8 9 10 11 10 7 6 5 4 4 5 6 5 5 5 4 4 3 4 6 6 6 7 7
16 15 14 14 14 14 13 12 13 12 12 13 13 14 13 12 13 13 14 14 14 14 15 16 16 16 16 16 17 17 18 18 19 20 20 19 18 16 15 15 16 16 16 16 15 15 15 16 17 17 16 15 15 14 13 12 12 11 7 5 7 7 8 9 10 9 7 5 5 4 5 6 6 6 5 5 4 3 3 5 6 7 7 7 6
17 16 15 14 14 15 14 13 13 13 13 13 14 14 13 12 12 13 14 14 15 15 16 17 17 17 17 18 18 18 18 20 21 20 20 19 18 16 16 15 16 16 16 16 17 17 17 17 17 16 16 15 15 14 13 12 12 11 8 5 6 6 7 8 9 9 7 5 5 5 6 7 7 6 5 4 4 3 4 5 6 6 6 6 5
17 16 16 15 15 15 15 15 13 13 13 13 14 14 13 13 13 14 15 15 15 16 17 17 18 18 19 19 19 19 20 21 21 20 20 19 18 18 17 16 17 17 17 18 18 17 17 17 16 15 14 13 12 11 10 10 10 9 7 3 4 6 7 9 8 9 8 6 7 7 7 7 7 6 5 5 4 4 5 6 6 6 6 6 5
17 16 17 16 16 15 16 15 15 14 13 13 13 14 14 13 15 15 16 16 16 17 17 18 19 19 19 19 20 20 21 21 20 20 20 19 19 18 17 17 17 17 18 17 17 16 16 16 15 14 13 11 10 10 10 10 9 8 6 2 3 6 7 8 7 9 9 8 8 7 7 7 7 6 5 5 4 4 5 6 5 5 6 6 6
17 16 16 16 16 15 16 15 15 15 13 13 13 15 15 14 15 15 16 17 18 18 19 19 19 19 19 19 19 19 20 20 20 20 19 19 18 17 18 18 17 17 17 16 16 16 15 15 15 14 13 11 9 9 11 11 10 9 7 3 1 4 6 6 6 9 10 8 8 7 7 7 7 6 5 5 4 5 6 6 6 6 6 6 6
17 17 17 16 16 16 15 14 14 13 13 13 13 15 16 16 16 16 16 17 18 19 19 20 19 19 18 18 18 18 19 20 20 20 19 18 17 17 18 17 17 17 16 16 15 14 13 13 13 13 11 9 7 7 9 11 10 8 6 3 1 3 4 5 5 8 10 9 8 7 7 7 7 6 6 5 5 6 6 6 6 6 6 6 7
17 18 17 16 16 16 15 14 14 13 13 14 14 15 16 17 16 16 17 18 19 19 20 20 19 18 18 17 18 18 18 19 19 19 18 18 17 17 17 17 17 16 16 15 14 13 12 12 11 11 10 8 7 6 7 8 9 8 8 7 5 4 5 5 6 9 10 9 8 7 7 7 7 6 6 5 5 6 7 7 6 6 6 7 8
17 17 17 16 16 16 15 14 15 14 14 14 15 15 16 18 17 17 18 18 19 19 20 20 19 18 17 17 17 17 17 17 18 18 17 17 17 17 17 17 16 14 13 13 13 12 12 11 11 11 10 8 6 5 5 4 5 7 9 9 7 7 8 8 8 10 10 9 7 7 7 7 7 6 6 6 6 7 7 7 6 7 8 8 8
16 18 17 16 16 16 16 15 15 15 15 14 14 14 16 18 17 17 18 19 19 19 20 19 19 18 17 17 17 16 16 15 16 16 16 17 17 17 17 16 14 12 11 10 10 10 10 10 11 11 9 7 4 4 2 1 3 4 6 6 6 7 10 10 10 10 10 8 7 7 6 6 6 7 6 6 7 7 7 7 8 8 9 9 9
17 18 17 17 17 17 16 16 16 17 16 15 14 14 15 17 17 16 17 19 20 20 19 18 18 18 17 16 15 15 14 14 14 15 16 17 17 16 15 13 11 10 9 8 8 8 9 11 12 10 7 5 4 5 3 2 3 3 3 3 4 5 8 11 11 11 10 8 6 6 6 6 6 7 7 7 7 8 8 8 9 9 9 9 10
16 17 17 18 18 18 16 17 18 18 17 16 15 15 16 17 17 17 17 18 19 19 18 17 17 17 17 16 14 14 14 14 15 15 16 16 16 15 13 11 9 8 8 8 10 11 12 12 11 8 5 5 6 8 6 5 4 3 3 2 2 3 5 8 9 9 9 7 6 6 6 6 7 7 8 8 8 8 9 10 10 10 10 10 10
15 17 17 17 18 18 17 19 20 18 18 18 17 16 17 17 17 17 17 18 19 19 18 16 16 15 15 15 14 15 15 16 16 15 14 14 14 13 12 9 8 9 9 10 12 13 13 11 9 7 6 6 7 6 4 5 6 3 4 4 2 1 3 5 7 7 8 7 6 6 6 6 7 7 8 8 8 8 9 10 11 10 10 10 10
14 17 17 17 17 17 18 20 20 19 19 19 18 17 17 17 17 16 17 18 19 19 18 17 16 16 15 14 15 17 17 16 14 13 12 12 11 10 9 8 8 9 9 10 12 13 13 11 9 7 7 7 5 4 5 6 4 3 3 5 2 1 1 3 4 6 7 7 6 7 7 7 7 8 8 8 8 9 10 10 10 11 11 11 11
12 16 17 16 16 17 18 20 20 19 19 18 18 18 18 17 16 15 15 16 18 17 17 17 16 16 15 15 17 18 17 15 13 12 12 11 9 9 9 8 8 8 7 8 11 11 10 10 9 8 6 5 4 5 7 6 4 4 4 3 1 3 2 2 2 4 5 5 6 7 7 7 7 7 7 8 8 9 9 10 11 11 12 12 12
12 16 17 16 15 17 18 20 21 20 19 19 18 19 18 17 16 15 14 15 16 15 16 16 15 14 13 15 18 19 16 13 12 11 11 9 8 8 8 8 8 7 6 7 8 8 8 9 9 8 5 4 4 5 7 6 6 7 6 3 1 4 4 1 1 1 1 3 5 6 7 7 7 7 7 6 7 8 9 10 11 11 12 13 13
14 16 15 14 15 17 18 20 20 20 20 19 19 19 18 17 15 14 13 14 15 14 15 15 13 11 11 15 19 19 16 13 12 11 10 9 7 6 6 7 7 7 6 6 7 7 7 9 9 8 5 4 5 5 6 7 8 9 7 5 4 5 4 1 2 2 1 0 3 4 5 6 7 7 6 5 5 6 7 8 9 10 12 13 13
16 15 13 13 15 17 18 19 20 21 21 20 19 19 17 16 14 13 12 13 14 14 14 14 13 11 11 15 18 18 17 15 13 11 10 9 7 5 6 7 7 7 7 7 7 6 7 8 9 8 6 6 5 5 5 6 10 10 8 7 5 5 6 5 5 3 2 2 1 1 3 4 6 7 7 5 5 5 5 5 6 8 9 10 10
18 15 13 12 15 17 18 19 21 21 21 20 20 19 18 17 16 14 13 12 13 13 14 14 13 12 13 16 17 16 17 16 13 11 10 9 7 7 7 7 8 7 6 7 6 6 8 9 10 9 7 6 4 5 5 4 10 12 7 7 5 4 8 9 7 5 3 3 3 2 1 2 4 8 8 5 5 6 5 5 4 4 6 7 8
21 18 17 15 14 16 18 21 21 21 21 21 21 21 21 20 18 16 15 13 11 11 13 13 13 13 14 15 15 15 17 16 14 12 10 9 8 7 8 7 8 7 5 6 6 7 9 10 11 9 8 6 4 6 7 6 11 11 6 5 4 4 7 9 9 8 8 7 7 5 3 0 3 6 8 7 7 8 8 7 6 5 6 8 10
23 21 20 18 16 15 18 21 22 22 22 21 23 22 22 21 19 17 16 14 11 9 11 13 13 13 14 14 15 16 16 15 15 13 10 9 7 7 7 7 8 6 6 7 7 8 9 11 11 8 8 7 5 8 8 7 8 9 6 4 4 4 6 7 8 9 10 11 11 9 6 3 0 4 6 6 5 6 7 8 7 6 7 9 11
24 23 21 19 18 16 17 19 20 21 21 22 23 22 22 21 19 17 16 16 13 8 8 10 10 13 15 14 16 17 15 14 14 12 10 9 8 7 7 7 7 6 7 8 8 9 9 10 9 8 8 6 6 8 7 5 6 7 5 3 3 3 4 4 5 8 9 12 13 11 10 7 3 1 4 5 4 4 4 5 5 5 6 8 10
26 25 23 20 19 18 17 16 18 20 20 22 22 21 22 22 19 17 15 17 14 9 8 8 10 14 15 15 16 16 14 13 12 10 10 9 8 7 7 7 7 7 8 9 9 9 9 10 9 9 8 6 5 7 6 6 7 7 4 2 3 2 3 2 3 5 6 8 12 12 12 11 8 4 1 5 5 4 4 4 4 4 5 6 8
27 26 24 22 20 18 17 15 17 20 20 21 22 22 22 22 21 19 17 18 16 14 14 12 11 14 16 16 16 16 15 13 12 10 9 9 8 7 7 8 8 8 8 9 10 9 10 10 10 9 7 6 6 6 6 7 7 7 4 1 2 2 3 3 3 2 3 4 10 13 14 13 11 9 3 3 3 2 4 6 7 7 7 7 6
28 25 24 23 20 19 18 17 19 21 21 22 22 22 21 22 24 23 22 22 20 19 18 15 13 13 15 17 16 16 15 14 13 11 9 9 8 8 8 9 9 9 10 11 10 10 10 10 10 9 7 6 6 5 5 7 6 7 6 4 1 1 2 3 4 1 2 3 3 9 11 12 13 12 6 2 2 3 4 6 8 8 9 9 8
28 25 25 24 22 21 21 20 21 22 23 24 23 22 21 22 24 24 24 24 23 21 18 15 13 12 14 16 16 17 16 15 14 12 10 9 8 8 9 10 10 9 10 10 9 9 10 10 9 8 7 6 5 4 6 7 6 5 6 4 2 2 3 3 5 4 4 7 5 2 7 11 12 10 7 5 4 4 4 5 7 8 8 9 9
28 27 27 26 23 22 22 22 23 24 25 26 24 23 22 23 22 22 23 24 23 21 18 16 13 12 14 15 16 17 16 16 15 13 12 10 9 8 9 9 10 10 10 9 9 9 10 10 8 7 8 7 6 5 6 6 5 5 6 4 2 1 2 3 4 5 5 6 7 4 5 8 7 6 5 5 4 4 6 6 6 9 9 7 7
29 28 26 25 24 23 22 23 24 25 27 26 25 24 23 23 21 21 22 24 23 21 18 17 14 14 16 15 16 16 16 16 14 13 12 11 10 9 9 10 10 10 10 10 9 10 10 9 8 8 10 9 7 6 5 4 4 5 6 5 3 3 0 2 3 4 5 4 6 6 4 5 4 2 3 3 3 5 6 4 5 9 9 6 6
30 27 25 23 24 24 24 24 26 27 28 27 25 25 24 23 22 22 22 22 22 21 19 18 16 16 17 16 16 15 16 16 14 12 12 11 10 10 10 11 10 10 10 11 10 9 9 8 7 8 10 10 8 7 6 4 4 4 5 5 4 4 2 1 2 3 4 4 5 5 4 3 3 3 2 1 2 4 4 4 7 9 8 8 10
30 28 25 23 23 25 25 25 27 28 29 27 26 25 25 24 23 22 22 22 22 22 21 19 17 17 17 15 15 15 16 16 14 12 11 11 10 10 10 11 11 10 10 11 9 7 8 7 7 8 9 10 10 9 7 6 4 4 5 5 4 2 1 2 4 4 4 4 4 3 3 3 3 3 2 2 3 4 5 6 9 9 8 9 11
Wind_Direction
148 141 135 131 132 135 132 132 128 126 121 118 116 117 121 123 125 126 126 124 122 123 124 122 122 122 122 122 123 124 122 122 119 117 113 111 113 116 117 117 117 116 116 115 117 118 119 118 116 112 110 112 112 110 107 106 106 105 104 104 104 102 102 101 100 98 97 97 97 97 97 97 96 95 96 95 95 95 95 97 97 97 95 94 96
146 141 137 134 132 132 131 133 131 128 124 121 118 119 122 124 128 130 128 125 125 127 126 124 123 123 122 123 125 124 122 120 118 118 114 112 113 114 115 116 118 118 117 117 118 119 120 119 116 113 111 112 113 111 109 107 106 105 104 103 104 103 102 101 100 99 98 98 98 98 97 97 97 96 96 95 94 93 94 95 97 97 96 97 98
144 142 140 135 132 133 133 134 132 129 127 124 122 123 124 126 130 132 131 127 128 129 128 126 125 124 124 124 124 124 123 121 120 119 117 116 117 118 118 119 121 121 121 120 120 120 121 120 116 113 112 112 112 112 111 109 108 107 105 104 104 103 102 101 100 99 99 100 101 101 99 98 97 96 96 95 94 93 93 94 95 96 97 100 100
143 141 141 136 136 137 138 138 135 133 130 128 126 127 129 130 132 132 130 128 128 129 130 128 126 124 124 123 123 125 126 124 123 122 120 120 121 122 121 122 123 123 122 121 121 122 122 120 116 114 113 113 113 112 112 111 110 109 107 105 105 104 103 102 100 99 101 101 102 104 104 102 98 96 96 96 96 94 93 92 91 92 96 99 100
145 143 142 139 141 142 143 142 138 137 134 133 131 132 134 133 135 134 131 129 128 130 130 128 127 126 125 123 123 128 130 128 128 127 125 124 125 125 122 122 123 123 123 123 122 121 121 120 117 115 114 115 115 113 111 110 109 110 109 108 107 106 105 102 100 100 102 102 103 103 103 102 100 99 97 97 96 95 94 92 91 91 95 97 98
146 145 145 144 146 147 147 146 143 142 140 138 137 138 137 136 137 137 136 134 133 132 131 131 132 131 130 127 126 130 132 132 132 131 129 126 127 127 124 122 123 124 124 124 122 119 118 119 118 116 115 116 115 115 112 110 110 111 109 109 109 108 106 103 101 101 103 104 104 102 101 102 101 100 98 97 96 96 95 93 93 93 94 96 99
148 147 147 147 148 149 149 148 147 146 144 144 143 143 142 141 142 141 140 140 139 137 136 136 135 136 135 132 130 133 134 135 135 134 133 130 129 129 128 126 126 127 126 125 123 120 118 118 119 119 117 116 115 115 113 111 111 111 110 110 110 109 106 103 102 103 104 104 102 100 101 102 102 100 98 97 96 96 94 92 92 92 92 96 100
150 150 149 149 150 149 149 149 148 147 145 145 144 145 147 147 146 147 146 145 144 142 140 139 137 139 138 136 135 136 138 138 138 137 137 134 131 131 132 134 132 131 129 127 125 123 120 120 121 121 120 119 117 116 113 111 111 112 113 112 111 109 107 104 103 104 105 104 102 100 101 101 101 102 100 99 99 97 93 92 91 91 93 98 101
152 151 151 151 151 150 149 149 148 148 146 146 147 150 153 151 152 153 152 151 150 147 145 144 143 144 142 140 141 139 138 139 140 140 140 139 135 132 135 139 135 133 132 128 127 125 123 123 123 123 124 122 119 118 116 114 115 116 115 113 111 109 107 105 103 104 104 106 107 105 104 103 103 103 102 101 100 98 95 94 95 95 96 99 100
153 154 154 154 152 151 150 152 151 152 151 152 154 154 156 156 156 156 155 156 156 153 150 151 149 149 146 143 143 138 137 142 144 143 142 141 139 135 135 142 139 135 133 129 127 127 126 126 125 125 126 124 121 119 119 120 119 117 115 112 110 108 106 105 104 102 99 102 109 111 109 109 109 106 103 102 100 97 95 95 96 98 99 101 99
155 157 157 155 155 156 156 158 156 156 156 155 156 156 158 158 156 156 160 160 160 157 153 158 154 152 150 145 144 140 141 145 146 146 145 146 145 139 136 142 144 137 132 131 129 128 127 127 128 129 129 126 122 121 122 122 119 115 113 111 110 108 104 100 99 97 93 95 102 112 117 118 116 110 109 106 102 98 96 94 97 101 105 106 103
154 158 158 160 160 161 160 160 159 159 159 157 160 161 161 160 158 159 163 163 163 163 159 162 159 155 154 148 146 143 146 147 147 147 148 148 145 140 137 142 146 137 131 131 130 129 129 130 131 132 132 128 125 124 123 124 121 119 116 114 113 107 99 93 90 89 91 94 96 106 116 122 121 114 115 111 105 103 101 97 99 107 111 106 103
153 157 158 163 160 161 161 160 162 161 163 164 167 165 161 161 163 164 166 167 166 167 165 163 161 160 159 154 148 148 150 149 147 149 149 145 141 141 139 142 144 136 132 131 130 130 132 134 135 134 134 132 129 127 127 127 124 122 120 118 114 105 96 90 85 83 88 95 98 104 109 112 115 115 114 109 106 107 106 99 101 107 98 88 88
150 154 156 160 157 158 160 161 164 164 166 168 169 163 159 163 167 168 169 170 168 169 166 161 161 162 161 156 153 154 154 150 149 150 147 141 139 141 141 142 140 135 133 132 133 134 137 139 137 136 136 135 132 129 128 125 122 121 119 117 112 101 91 85 81 80 84 93 98 103 104 102 107 111 111 108 107 110 101 88 82 87 79 70 75
149 152 155 159 157 157 158 160 162 164 166 167 171 165 163 165 168 168 164 164 164 166 165 163 164 164 161 157 156 156 153 150 150 148 143 138 135 136 138 140 136 135 135 134 136 138 140 138 134 135 136 136 135 135 132 125 123 118 112 112 109 97 86 76 74 78 81 87 94 97 95 94 101 105 106 103 101 83 64 66 66 76 74 65 72
152 152 155 160 162 161 158 159 159 162 164 166 170 166 166 164 163 163 159 161 164 165 166 167 166 165 162 158 156 153 150 151 149 147 143 139 135 134 136 136 135 135 135 135 138 138 138 136 135 136 137 139 139 141 137 132 128 116 108 106 98 89 82 75 73 79 78 79 85 85 78 77 88 90 83 57 33 40 56 72 74 79 77 67 71
155 156 160 163 165 162 158 157 157 157 159 161 163 163 164 160 159 160 159 161 165 167 168 169 166 165 164 160 155 150 150 150 149 147 143 141 138 137 136 135 135 135 135 138 139 138 137 136 133 133 136 139 140 140 138 137 131 118 109 103 93 88 85 77 72 73 70 70 72 66 60 63 71 65 52 39 41 59 73 84 84 83 75 69 72
156 161 164 166 165 160 156 155 155 154 156 158 159 161 158 155 155 157 159 161 165 166 165 168 165 163 163 158 155 151 149 147 147 146 140 139 138 136 136 136 137 137 138 139 139 137 134 132 128 127 131 135 137 135 135 131 123 116 107 99 92 88 81 70 63 63 62 61 59 50 50 58 63 60 54 51 63 76 77 83 86 82 71 66 68
158 165 165 165 163 158 155 152 153 154 157 158 156 154 151 152 154 155 154 157 162 163 162 164 163 162 159 155 154 150 147 146 145 143 139 137 137 137 138 139 139 137 136 134 133 132 130 128 126 124 125 129 131 130 127 119 111 107 105 100 90 78 67 61 58 56 56 54 49 44 48 58 64 61 55 54 64 72 72 78 84 81 73 66 63
160 165 164 161 157 154 152 150 151 151 154 154 150 145 144 148 148 149 150 153 157 157 159 160 162 160 155 154 153 149 146 146 145 142 139 137 138 140 141 140 139 136 133 131 129 128 128 126 124 122 122 125 126 126 121 113 108 103 104 102 86 72 61 57 51 44 47 47 42 44 51 60 63 58 49 46 55 61 66 79 86 83 77 72 67
162 163 160 157 154 152 150 147 148 149 152 150 144 138 139 145 142 142 145 147 148 149 154 156 159 157 154 153 149 147 146 145 144 140 137 138 140 143 143 141 139 136 133 131 128 128 127 124 121 119 119 121 124 124 119 115 115 114 119 107 82 70 59 49 38 30 36 44 41 44 51 59 58 51 43 42 51 57 69 88 91 88 81 76 73
161 160 159 158 155 152 148 145 145 147 151 150 143 136 140 147 142 143 144 145 147 148 151 154 156 154 152 149 146 146 144 142 142 139 138 141 143 145 144 142 141 138 134 130 128 129 127 123 119 116 116 118 120 121 122 123 125 129 139 115 83 68 58 46 29 18 26 43 47 48 50 56 54 47 44 45 53 60 78 92 91 89 84 79 75
161 160 158 158 156 151 148 147 144 147 153 152 144 137 142 146 142 145 146 146 148 148 149 151 152 151 149 145 144 144 141 140 141 140 142 143 144 144 144 145 144 139 133 130 129 129 125 121 116 113 111 111 112 113 116 120 127 135 139 108 73 62 58 43 22 13 22 39 47 53 53 56 54 50 51 53 61 70 86 89 87 87 85 80 76
160 160 156 158 157 150 150 150 147 150 155 150 140 135 139 141 138 140 144 146 147 146 146 147 148 146 144 143 143 141 140 142 143 143 144 145 144 145 146 146 143 137 134 132 130 126 122 120 116 111 108 106 107 108 108 110 120 132 141 120 60 52 52 37 18 13 24 37 47 53 55 60 60 60 63 66 73 82 87 84 84 85 83 80 75
157 160 159 160 157 152 153 153 150 153 153 147 135 131 134 134 133 132 137 141 141 143 143 144 144 144 142 142 143 142 143 144 144 146 147 148 146 145 146 144 141 137 135 133 128 124 122 122 120 117 114 112 111 106 104 105 115 127 143 141 56 53 50 39 24 20 27 38 48 52 57 64 66 67 68 75 83 85 84 78 76 77 75 71 66
158 162 162 158 157 155 156 153 149 149 151 149 139 132 133 133 132 131 133 136 136 139 140 142 142 142 142 142 142 142 143 146 146 148 148 147 143 142 142 140 138 136 136 133 127 123 122 123 124 124 124 126 124 116 110 109 116 127 145 163 48 52 47 36 24 24 31 40 51 57 61 66 69 70 70 75 83 83 81 75 69 67 66 65 61
158 161 162 158 156 154 155 154 148 147 150 151 144 138 138 137 135 134 134 134 134 136 138 140 140 140 141 141 142 143 145 148 148 148 147 144 141 140 138 135 133 132 132 130 126 123 123 127 129 130 133 135 133 126 120 116 118 123 139 180 351 29 30 23 17 25 34 45 54 59 63 69 71 72 72 75 79 80 76 69 65 65 64 64 62
159 161 163 159 157 154 154 155 149 149 151 150 149 144 143 143 141 140 138 136 135 137 138 139 139 140 142 142 143 145 148 149 148 147 146 143 141 138 133 131 128 124 124 125 125 125 126 130 133 135 136 137 137 135 128 117 110 108 115 135 326 358 23 28 29 33 39 49 56 60 66 72 74 73 73 75 76 75 71 67 65 66 65 63 61
162 161 162 159 158 156 155 156 153 151 150 148 150 150 148 145 144 143 142 141 139 139 139 138 138 141 142 143 144 145 147 147 146 145 143 140 137 133 129 127 125 120 119 124 130 132 132 133 135 138 138 138 138 147 143 117 95 81 77 72 51 44 61 61 53 46 45 51 57 62 68 73 76 75 75 75 77 76 73 72 68 67 67 65 64
165 164 163 161 160 160 160 159 156 153 151 148 149 151 148 146 146 145 145 144 142 141 140 139 138 139 138 138 139 140 142 142 143 142 140 136 133 130 126 124 122 120 121 128 136 139 139 137 135 137 138 137 137 150 155 121 86 70 69 66 56 55 67 69 63 59 52 52 59 64 69 75 79 77 78 80 80 82 77 74 72 73 74 71 70
167 166 165 163 162 162 162 162 160 155 154 153 150 149 145 144 147 148 147 147 145 143 141 140 139 137 134 134 135 137 139 138 138 138 136 132 130 128 125 121 120 123 126 130 134 138 143 142 138 135 134 136 146 165 172 127 102 83 74 64 53 53 62 64 62 65 59 52 58 64 69 75 83 84 84 86 85 84 79 78 79 79 79 76 73
168 165 164 164 163 163 163 165 164 158 158 158 153 149 144 143 147 150 152 150 148 144 142 142 141 140 138 137 138 139 140 137 135 134 132 128 126 126 125 123 123 127 127 126 128 132 138 142 142 139 137 140 149 159 169 165 134 114 111 69 51 54 62 64 61 63 60 54 57 62 71 78 85 88 85 85 84 84 83 83 84 82 80 78 75
168 166 163 163 163 163 162 164 164 160 161 162 158 152 146 143 145 149 152 153 150 147 144 142 142 143 143 143 144 144 142 138 135 131 129 128 126 127 129 130 130 131 128 123 124 125 131 141 148 150 147 146 147 148 156 174 180 164 143 102 55 58 66 71 63 57 51 49 58 61 70 77 82 86 85 85 84 86 87 87 87 84 81 77 73
164 168 166 163 164 162 160 161 161 160 161 162 160 152 146 145 144 146 149 153 153 149 146 144 145 147 146 147 147 144 139 136 134 130 128 130 131 133 133 134 132 132 131 125 126 130 137 146 152 149 141 138 137 133 144 168 180 169 122 108 108 61 64 80 67 54 46 49 63 66 69 74 79 82 82 85 86 88 90 91 89 83 78 74 69
166 169 166 162 163 162 161 161 160 161 160 159 158 152 147 145 143 145 148 152 155 153 151 149 150 152 150 150 148 142 137 134 131 128 130 133 133 135 135 138 141 139 136 129 133 141 144 147 147 138 129 122 109 101 126 145 157 161 120 111 127 281 315 90 70 59 56 61 72 75 75 72 73 77 81 84 86 89 90 89 85 81 77 71 67
171 168 166 162 162 163 165 163 161 161 157 155 156 152 148 145 142 144 149 155 158 158 155 153 155 157 154 152 149 144 139 134 130 130 133 133 134 143 147 148 146 147 149 142 142 148 150 146 142 138 131 121 112 125 142 145 146 147 136 119 187 252 220 134 91 72 64 64 67 76 81 74 67 70 78 85 89 92 92 91 87 84 81 75 70
174 168 165 163 161 162 168 165 160 158 156 155 156 155 151 147 145 146 151 159 165 164 161 161 161 162 160 153 151 147 142 138 137 140 142 140 143 152 154 151 151 159 165 157 151 156 159 153 149 151 151 133 128 145 155 158 153 140 137 133 194 202 184 149 130 121 82 67 62 66 72 73 70 63 68 84 92 94 98 100 96 91 87 79 73
174 171 166 162 162 162 166 166 160 158 159 158 157 156 153 151 151 152 152 159 171 174 170 170 171 174 167 156 155 152 148 150 153 157 156 153 154 160 162 159 161 164 165 166 162 163 168 165 163 164 159 133 123 134 145 161 164 155 157 160 159 178 185 255 242 201 224 124 69 52 52 67 74 64 61 72 82 91 98 100 99 96 90 82 76
175 178 172 161 162 165 166 166 163 161 162 161 155 153 153 153 153 152 150 155 168 177 180 182 184 186 175 163 162 157 153 157 161 165 164 162 167 182 188 177 167 162 165 175 172 170 176 173 170 172 164 142 125 123 134 174 180 165 165 172 164 181 202 224 226 206 216 230 161 61 39 46 61 65 65 66 72 77 77 81 92 91 82 76 73
178 181 180 172 167 168 172 171 167 165 164 159 154 153 154 155 156 155 152 152 159 171 181 186 184 182 175 171 169 163 159 161 164 170 171 172 178 188 193 187 175 167 170 180 178 171 173 174 172 174 170 151 127 119 111 154 175 166 167 184 186 189 200 211 223 228 233 239 239 211 114 29 46 65 68 71 74 68 57 62 75 67 57 56 53
179 180 183 187 182 176 179 177 171 169 168 162 159 158 156 158 163 163 159 157 160 167 173 175 176 175 172 172 172 170 168 167 171 176 177 178 177 180 186 188 180 176 182 181 173 163 167 174 174 173 165 152 130 123 113 116 155 168 171 189 201 187 193 206 219 231 240 251 257 240 202 88 33 61 75 85 77 68 59 55 54 42 41 39 31
179 181 184 192 194 188 183 178 175 175 172 166 164 162 158 160 167 171 171 170 173 176 171 167 171 174 174 172 172 175 176 174 177 181 181 184 183 183 185 184 179 180 184 172 160 157 166 174 172 166 154 140 121 124 127 126 150 169 167 166 180 172 184 200 215 227 235 243 247 238 219 210 339 54 81 94 74 57 56 49 48 44 39 31 20
181 184 188 194 198 195 185 177 180 181 175 170 170 166 161 161 168 179 183 180 183 189 181 173 178 183 181 178 177 181 183 181 182 183 183 185 186 183 179 175 175 173 169 161 156 157 163 172 171 163 148 130 120 127 133 138 156 175 176 177 186 182 192 201 229 232 229 232 233 234 232 225 220 73 68 80 58 30 35 33 35 33 26 22 16
184 187 191 197 199 199 190 182 185 185 178 174 174 170 165 164 170 180 184 181 184 191 192 189 188 189 187 185 185 186 188 187 188 188 184 180 175 173 172 174 176 173 165 157 157 161 164 173 175 166 152 133 128 137 141 139 152 177 190 223 222 231 235 258 290 247 238 236 231 238 240 233 225 219 50 66 71 41 20 4 356 355 358 10 13
187 190 194 199 201 201 196 191 190 186 181 178 176 173 172 170 172 176 176 178 185 194 197 193 188 192 190 187 188 188 188 191 195 196 188 178 171 170 170 172 177 175 168 159 159 165 170 175 174 167 157 141 130 132 143 134 137 162 167 192 216 239 265 323 351 226 229 249 229 231 236 234 226 220 241 43 64 19 352 341 330 325 328 339 352
190 194 198 200 202 203 202 199 193 186 183 181 178 176 177 176 177 178 178 181 188 195 198 193 187 195 192 187 189 190 189 192 196 198 193 181 173 174 171 169 174 176 171 165 164 171 175 172 169 168 161 148 137 131 145 142 136 145 134 118 133 352 340 13 23 97 107 57 230 229 233 233 226 223 241 306 338 310 312 327 330 326 318 314 322
193 197 198 201 204 204 205 202 194 187 185 184 182 180 180 181 183 186 188 190 193 195 199 194 190 199 196 190 193 193 189 192 196 197 194 184 174 176 174 171 172 174 175 171 171 178 177 171 169 173 173 162 155 155 161 160 153 148 139 130 99 20 11 22 14 4 52 59 61 199 223 226 225 230 243 267 285 283 290 315 333 335 325 308 304
194 197 197 201 205 205 204 200 194 189 187 187 185 184 186 187 190 194 195 196 196 196 199 198 200 206 199 193 196 195 190 193 196 196 195 184 175 178 181 180 177 176 182 183 183 184 179 176 177 184 189 181 174 178 173 165 160 163 165 161 151 71 22 8 359 355 11 50 65 90 190 209 223 236 237 243 254 282 299 301 316 325 327 315 295
197 198 200 204 206 205 201 196 194 192 190 190 187 187 191 192 195 198 198 197 197 199 203 203 205 204 194 192 198 195 190 195 197 194 195 187 180 186 187 188 187 186 191 191 186 187 183 180 182 190 195 191 187 190 182 168 163 170 179 183 203 209 175 20 13 15 19 36 52 65 123 170 183 193 196 216 258 306 308 287 304 316 315 317 311
199 200 202 205 206 205 200 195 195 193 192 192 191 191 193 194 197 199 199 198 198 202 206 206 206 197 187 189 196 192 191 198 197 190 193 190 188 191 188 189 191 193 196 190 183 187 184 179 183 192 195 194 199 201 191 176 171 178 192 199 214 223 221 38 27 21 21 21 29 49 74 105 110 107 140 215 282 314 307 283 301 308 306 318 324
198 199 201 204 204 203 200 197 195 193 192 194 195 195 195 196 200 199 200 200 199 202 205 206 206 196 186 189 197 195 195 200 196 190 191 192 194 193 190 194 196 194 196 195 194 192 186 183 188 190 192 198 207 209 201 191 189 199 214 216 218 233 284 349 356 358 354 348 348 3 17 20 41 45 340 296 285 302 312 307 305 305 309 322 325